User: anonymous   Login
Location: Unspecified
(0.0000°N, 0.0000°E)
Time: 08:24:14
(UTC+00:00)
Language:

FORTE - Orbit

View from above orbital plane
View from above orbital plane
View from above satellite
View from above satellite

Ground track
Ground track

The orbit data is extracted from the following two-line orbital elements,

1 24920U 97047A   19287.90915316 -.00000003 +00000-0 +22868-4 0  9999
2 24920 069.9520 109.6175 0023297 348.5114 011.5472 14.26349812151005
Epoch (UTC): 14 October 2019 21:49:10
Eccentricity: 0.0023297
inclination: 69.9520°
perigee height: 787 km
apogee height: 820 km
right ascension of ascending node: 109.6175°
argument of perigee: 348.5114°
revolutions per day: 14.26349812
mean anomaly at epoch: 11.5472°
orbit number at epoch: 15100

The dashed part of the orbit path shows where the satellite is in the earth's shadow,  

DLR